TimeCET,TemperatureF,Dew PointF,Humidity,Sea Level PressureIn,VisibilityMPH,Wind Direction,Wind SpeedMPH,Gust SpeedMPH,PrecipitationIn,Events,Conditions,WindDirDegrees,DateUTC
12:00 AM,48,46,91,30.29,,WNW,4.6,,,,,290,2013-12-23 23:00:00
12:00 AM,46.4,44.6,93,30.27,6.2,WNW,3.5,-,N/A,,Partly Cloudy,290,2013-12-23 23:00:00
12:30 AM,46.4,44.6,93,30.27,6.2,West,6.9,-,N/A,,Partly Cloudy,280,2013-12-23 23:30:00
1:00 AM,47,45,92,30.27,9,West,6.9,,,,Scattered Clouds,280,2013-12-24 00:00:00
1:00 AM,46.4,44.6,93,30.24,6.2,West,6.9,-,N/A,,Partly Cloudy,280,2013-12-24 00:00:00
1:30 AM,46.4,44.6,93,30.24,6.2,WNW,6.9,-,N/A,,Scattered Clouds,290,2013-12-24 00:30:00
2:00 AM,47,44,87,30.25,,West,9.2,,,,,280,2013-12-24 01:00:00
2:00 AM,46.4,44.6,93,30.24,6.2,West,9.2,-,N/A,,Mostly Cloudy,280,2013-12-24 01:00:00
2:30 AM,44.6,42.8,93,30.21,6.2,West,8.1,-,N/A,,Scattered Clouds,280,2013-12-24 01:30:00
3:00 AM,45,43,91,30.23,,West,8.1,,,,,280,2013-12-24 02:00:00
3:00 AM,44.6,42.8,93,30.21,6.2,West,6.9,-,N/A,,Scattered Clouds,280,2013-12-24 02:00:00
3:30 AM,44.6,42.8,93,30.21,6.2,West,9.2,-,N/A,,Scattered Clouds,280,2013-12-24 02:30:00
4:00 AM,44,42,89,30.23,9,WNW,8.1,,,,Partly Cloudy,290,2013-12-24 03:00:00
4:00 AM,42.8,41.0,93,30.21,6.2,WNW,8.1,-,N/A,,Scattered Clouds,300,2013-12-24 03:00:00
4:30 AM,42.8,42.8,100,30.21,6.2,WNW,9.2,-,N/A,,Scattered Clouds,290,2013-12-24 03:30:00
5:00 AM,44,42,89,30.21,,WNW,10.4,,,,,290,2013-12-24 04:00:00
5:00 AM,42.8,41.0,93,30.18,6.2,WNW,9.2,-,N/A,,Scattered Clouds,290,2013-12-24 04:00:00
5:30 AM,42.8,41.0,93,30.18,6.2,WNW,10.4,-,N/A,,Scattered Clouds,290,2013-12-24 04:30:00
6:00 AM,42,41,94,30.19,,WNW,8.1,,,,,300,2013-12-24 05:00:00
6:00 AM,41.0,41.0,100,30.18,6.2,WNW,8.1,-,N/A,,Scattered Clouds,300,2013-12-24 05:00:00
6:30 AM,41.0,39.2,93,30.18,6.2,WNW,9.2,-,N/A,,Partly Cloudy,290,2013-12-24 05:30:00
7:00 AM,42,40,91,30.19,9,WNW,8.1,,,,Scattered Clouds,290,2013-12-24 06:00:00
7:00 AM,41.0,39.2,93,30.18,4.3,WNW,8.1,-,N/A,,Partly Cloudy,300,2013-12-24 06:00:00
7:14 AM,41.0,39.2,93,30.18,2.5,WNW,8.1,-,N/A,,Partly Cloudy,300,2013-12-24 06:14:00
7:30 AM,39.2,39.2,100,30.18,1.2,WNW,8.1,-,N/A,Fog,Patches of Fog,290,2013-12-24 06:30:00
7:44 AM,39.2,39.2,100,30.18,0.6,WNW,8.1,-,N/A,Fog,Patches of Fog,300,2013-12-24 06:44:00
7:45 AM,39.2,39.2,100,30.18,0.6,WNW,8.1,-,N/A,Fog,Patches of Fog,300,2013-12-24 06:45:00
8:00 AM,41,40,95,30.19,,WNW,9.2,,,,,290,2013-12-24 07:00:00
8:00 AM,39.2,39.2,100,30.18,0.9,WNW,8.1,-,N/A,Fog,Patches of Fog,290,2013-12-24 07:00:00
8:30 AM,39.2,39.2,100,30.18,0.7,WNW,8.1,-,N/A,Fog,Patches of Fog,290,2013-12-24 07:30:00
8:47 AM,39.2,39.2,100,30.15,1.2,WNW,8.1,-,N/A,Fog,Patches of Fog,290,2013-12-24 07:47:00
9:00 AM,40,40,100,30.19,,West,11.5,,,,,280,2013-12-24 08:00:00
9:00 AM,39.2,39.2,100,30.15,1.9,West,10.4,-,N/A,Fog,Patches of Fog,280,2013-12-24 08:00:00
9:30 AM,41.0,41.0,100,30.15,1.2,West,8.1,-,N/A,Fog,Patches of Fog,280,2013-12-24 08:30:00
10:00 AM,44,43,94,30.18,2,WNW,8.1,,,,Mist,300,2013-12-24 09:00:00
10:00 AM,42.8,42.8,100,30.15,1.9,WNW,6.9,-,N/A,,Partly Cloudy,300,2013-12-24 09:00:00
10:30 AM,46.4,44.6,93,30.18,1.9,WNW,10.4,-,N/A,,Partly Cloudy,290,2013-12-24 09:30:00
11:00 AM,50,45,77,30.19,,WNW,8.1,,,,,300,2013-12-24 10:00:00
11:00 AM,48.2,46.4,93,30.18,5.0,WNW,8.1,-,N/A,,Partly Cloudy,300,2013-12-24 10:00:00
11:30 AM,51.8,48.2,88,30.15,5.0,NW,3.5,-,N/A,,Partly Cloudy,310,2013-12-24 10:30:00
12:00 PM,54,46,67,30.17,,NW,4.6,,,,,310,2013-12-24 11:00:00
12:00 PM,53.6,46.4,77,30.15,5.0,NW,3.5,-,N/A,,Partly Cloudy,310,2013-12-24 11:00:00
12:30 PM,55.4,48.2,77,30.15,5.0,WNW,4.6,-,N/A,,Partly Cloudy,300,2013-12-24 11:30:00
1:00 PM,58,46,55,30.13,9,NW,2.3,,,,Scattered Clouds,310,2013-12-24 12:00:00
1:00 PM,57.2,46.4,67,30.12,6.2,Variable,2.3,-,N/A,,Scattered Clouds,0,2013-12-24 12:00:00
1:30 PM,57.2,46.4,67,30.09,6.2,West,3.5,-,N/A,,Scattered Clouds,280,2013-12-24 12:30:00
2:00 PM,59,46,52,30.09,,West,2.3,,,,,270,2013-12-24 13:00:00
2:00 PM,57.2,46.4,67,30.09,6.2,Variable,2.3,-,N/A,,Scattered Clouds,0,2013-12-24 13:00:00
2:30 PM,59.0,46.4,63,30.06,6.2,Calm,Calm,-,N/A,,Scattered Clouds,0,2013-12-24 13:30:00
3:00 PM,59,46,52,30.08,,WNW,2.3,,,,,290,2013-12-24 14:00:00
3:00 PM,57.2,46.4,67,30.06,6.2,NW,1.2,-,N/A,,Scattered Clouds,310,2013-12-24 14:00:00
3:30 PM,59.0,46.4,63,30.09,6.2,WNW,3.5,-,N/A,,Scattered Clouds,290,2013-12-24 14:30:00
4:00 PM,59,46,53,30.09,7,West,2.3,,,,Mostly Cloudy,270,2013-12-24 15:00:00
4:00 PM,59.0,46.4,63,30.06,6.2,Variable,2.3,-,N/A,,Scattered Clouds,0,2013-12-24 15:00:00
4:30 PM,57.2,46.4,67,30.06,6.2,SSE,1.2,-,N/A,,Scattered Clouds,160,2013-12-24 15:30:00
5:00 PM,58,47,58,30.06,,South,2.3,,,,,180,2013-12-24 16:00:00
5:00 PM,57.2,48.2,72,30.04,6.2,South,2.3,-,N/A,,Scattered Clouds,180,2013-12-24 16:00:00
5:30 PM,59.0,48.2,67,30.04,6.2,WSW,2.3,-,N/A,,Scattered Clouds,250,2013-12-24 16:30:00
6:00 PM,60,49,58,30.06,,South,2.3,,,,,190,2013-12-24 17:00:00
6:00 PM,59.0,50.0,72,30.06,6.2,Variable,1.2,-,N/A,,Mostly Cloudy,0,2013-12-24 17:00:00
6:30 PM,60.8,48.2,63,30.04,6.2,SSW,8.1,-,N/A,,Mostly Cloudy,200,2013-12-24 17:30:00
7:00 PM,62,49,53,30.05,7,SSW,13.8,,,,Mostly Cloudy,210,2013-12-24 18:00:00
7:00 PM,60.8,50.0,68,30.04,6.2,SSW,12.7,26.5,N/A,,Mostly Cloudy,210,2013-12-24 18:00:00
7:30 PM,60.8,50.0,68,30.04,6.2,South,12.7,-,N/A,,Scattered Clouds,190,2013-12-24 18:30:00
8:00 PM,61,51,61,30.04,,SSW,13.8,,,,,200,2013-12-24 19:00:00
8:00 PM,60.8,51.8,72,30.04,6.2,SSW,13.8,-,N/A,,Scattered Clouds,210,2013-12-24 19:00:00
8:30 PM,60.8,51.8,72,30.01,6.2,SSW,10.4,-,N/A,,Scattered Clouds,200,2013-12-24 19:30:00
9:00 PM,61,52,65,30.02,,South,12.7,,,,,190,2013-12-24 20:00:00
9:00 PM,60.8,51.8,72,30.01,6.2,South,11.5,-,N/A,,Scattered Clouds,190,2013-12-24 20:00:00
9:30 PM,60.8,51.8,72,30.01,6.2,South,10.4,-,N/A,,Mostly Cloudy,190,2013-12-24 20:30:00
10:00 PM,60,54,73,30.02,7,South,13.8,,,,Mostly Cloudy,180,2013-12-24 21:00:00
10:00 PM,59.0,53.6,82,30.01,6.2,South,13.8,-,N/A,,Mostly Cloudy,180,2013-12-24 21:00:00
10:30 PM,59.0,53.6,82,29.98,6.2,South,13.8,-,N/A,,Light Drizzle,190,2013-12-24 21:30:00
11:00 PM,60,54,76,29.99,,SSW,11.5,,,,Unknown Precipitation,200,2013-12-24 22:00:00
11:00 PM,59.0,53.6,82,29.98,6.2,SSW,11.5,-,N/A,,Mostly Cloudy,200,2013-12-24 22:00:00
11:30 PM,60.8,53.6,77,29.98,6.2,SSW,12.7,27.6,N/A,,Mostly Cloudy,210,2013-12-24 22:30:00